Terminal Aerodrome Forecast
Issued by NWS

Home | Current Version | Previous Version | Text Only | Print | Product List | Glossary On
Versions: 1 2 3 4 5 6 7 8 9 10 11 12 13
000
FTUS45 KPIH 271123
TAFSUN
TAF
KSUN 271123Z 2712/2812 32008KT P6SM SCT040 BKN070
     FM271800 12011KT P6SM VCTS SCT040CB
     FM280200 32008KT P6SM FEW040
      AMD LTD TO CLD VIS AND WIND TIL 271400=

USA.gov is the U.S. government's official web portal to all federal, state and local government web resources and services.